Regional Weather Roundup
Issued by NWS

Home | Current Version | Previous Version | Graphics & Text | Print | Product List | Glossary On
Versions: 1 2 3 4 5 6 7 8 9 10 11 12 13 14 15 16 17 18 19 20 21 22 23 24 25 26 27 28 29 30 31 32 33 34 35 36 37 38 39 40 41 42 43 44 45 46 47 48 49 50
000
ASUS43 KMPX 112310
RWRMN
WEATHER ROUNDUP FOR MINNESOTA
NATIONAL WEATHER SERVICE TWIN CITIES/CHANHASSEN MN
600 PM CDT FRI JUL 11 2014


NOTE: "FAIR" INDICATES FEW OR NO CLOUDS BELOW 12,000 FEET WITH NO
SIGNIFICANT WEATHER AND/OR OBSTRUCTIONS TO VISIBILITY. N/A MEANS
CURRENT SKY AND/OR WEATHER CONDITIONS ARE NOT AVAILABLE.

MNZ060>063-068>070-120000-
   Twin Cities Metro

CITY           SKY/WX    TMP DP  RH WIND       PRES   REMARKS
TWIN CITIES    CLOUDY    80  69  69 SW7       29.96S
ST PAUL        CLOUDY    77  70  79 SE5       29.96S
CRYSTAL        CLOUDY    81  68  64 SW8       29.94S
BLAINE         CLOUDY    81  72  74 SW6       29.96S
LAKEVILLE      CLOUDY    75  70  83 CALM      29.97S
EDEN PRAIRIE   CLOUDY    78  70  76 SW5       29.95S
SOUTH ST PAUL  CLOUDY    78  69  73 CALM      29.96S
LAKE ELMO      CLOUDY    73  70  88 SE5       29.98S
$$
MNZ001>005-007-008-013>017-022>024-027-028-120000-
   Northwest Minnesota

CITY           SKY/WX    TMP DP  RH WIND       PRES   REMARKS
BEMIDJI        SUNNY     82  57  41 NW15G21   29.93R
HALLOCK        SUNNY     81  46  30 NW16      29.91R
ROSEAU         SUNNY     79  55  44 W15G23    29.89R
WARROAD        SUNNY     81  57  44 W14G22    29.88S
THIEF RVR FALL SUNNY     82  54  36 W15G25    29.93R
CROOKSTON      SUNNY     82  57  42 NW13      29.93S
FOSSTON        SUNNY     82  55  39 NW13      29.94S
DETROIT LAKES  SUNNY     82  64  54 N7        29.96S
MOORHEAD       SUNNY     84  63  48 N10       29.93S
PARK RAPIDS    SUNNY     83  63  50 NW13      29.93S
$$
MNZ006-009>011-018-025>026-120000-
   North Central Minnesota

CITY           SKY/WX    TMP DP  RH WIND       PRES   REMARKS
BAUDETTE       SUNNY     81  51  35 W9G20     29.88S
FLAG ISLAND    SUNNY     79  48  34 W22       29.85R HAZE
INTL FALLS     MOSUNNY   80  59  48 NW10      29.86R
WASKISH        SUNNY     81  59  47 W12G18    29.90S
BIG FORK       MOSUNNY  N/A N/A N/A W10       29.90R
LONGVILLE      SUNNY     82  68  61 W5        29.92R
GRAND RAPIDS   PTSUNNY   81  68  65 W6        29.91S
CRANE LAKE     MOSUNNY   70  66  88 S6        29.89F
ORR            MOSUNNY   72  64  78 CALM      29.87S
COOK           PTSUNNY   70  61  73 NE3       29.92R
$$
MNZ012-019>021-037-120000-
   Northeast Minnesota

CITY           SKY/WX    TMP DP  RH WIND       PRES   REMARKS
DULUTH         PTSUNNY   73  67  81 S9        29.94S
ELY            PTSUNNY   72  64  78 W10       29.91S
HIBBING        MOSUNNY   79  69  71 SW6       29.91R
EVELETH        PTSUNNY   77  70  78 S7        29.93R
DULUTH HARBOR  CLOUDY    75  70  83 SW8       29.92F
TWO HARBORS    CLOUDY    72  64  78 SW5       29.92S
SILVER BAY     MOSUNNY   70  70 100 S7        29.92S
GRAND MARAIS     N/A     51  50  96 CALM      29.92S
G MARAIS ARPRT FOG       64  61  88 SW6       29.95S VSB 3/4
$$
MNZ029>031-032-039>041-046>048-054>057-064-120000-
   West Central Minnesota

CITY           SKY/WX    TMP DP  RH WIND       PRES   REMARKS
FERGUS FALLS   SUNNY     86  61  42 N6        29.92S
WHEATON        SUNNY     84  68  58 NW7       29.94S
MORRIS         SUNNY     88  72  58 N6        29.93S HX  94
ALEXANDRIA     SUNNY     84  67  56 NW7       29.95F
ELBOW LAKE     FAIR      84  72  65 N7        29.93S
WADENA         SUNNY     82  68  61 W6        29.94R
GLENWOOD       SUNNY     82  72  69 W3        29.95F
APPLETON       SUNNY     90  68  48 CALM      29.92S HX  93
BENSON         SUNNY     88  70  55 CALM      29.93S HX  92
ORTONVILLE     SUNNY     88  66  48 NW8       29.93S HX  90
MADISON        SUNNY     90  70  51 N3        29.93S HX  95
WILLMAR        FAIR      84  70  61 CALM      29.96R
$$
MNZ033>034-036-042>043-049>051-058-059-120000-
   Central Minnesota

CITY           SKY/WX    TMP DP  RH WIND       PRES   REMARKS
ST CLOUD       PTSUNNY   82  70  65 W5        29.94S
SAUK CENTRE    FAIR      82  70  66 NW5       29.94S
PAYNESVILLE    MOSUNNY   79  70  73 CALM      29.96S HAZE
AITKIN         SUNNY     81  72  74 S8        29.91F
PINE RIVER     MOSUNNY   82  68  61 NW6       29.95S
BRAINERD       SUNNY     84  72  67 S9        29.92F
STAPLES        PTSUNNY   84  68  58 W9        29.93S
LONG PRAIRIE   FAIR      82  68  61 W8        29.94F
LITTLE FALLS   SUNNY     81  68  65 SW6       29.94S
LITCHFIELD     MOSUNNY   82  75  78 CALM      29.96R
BUFFALO        PTSUNNY   79  70  73 SW5       29.96S
MAPLE LAKE     PTSUNNY   82  73  74 SW3       29.96R
$$
MNZ037-044-045-052-053-120000-
   East Central Minnesota

CITY           SKY/WX    TMP DP  RH WIND       PRES   REMARKS
PRINCETON      PTSUNNY   81  72  74 SW5       29.95S
MORA           PTSUNNY   75  66  73 S5        29.97S
CAMBRIDGE      SUNNY     81  66  61 S6        29.94S
RUSH CITY      CLOUDY    75  68  80 CALM      29.96S
MOOSE LAKE     MOSUNNY   77  68  73 S7        29.92F
HINCKLEY       CLOUDY    75  70  83 S8        29.95S
CLOQUET        PTSUNNY   73  66  78 SW9       29.94S
MCGREGOR       MOSUNNY   77  70  78 S10       29.93S
$$
MNZ071>073-080-081-089-090-097-098-120000-
   Southwest Minnesota

CITY           SKY/WX    TMP DP  RH WIND       PRES   REMARKS
MONTEVIDEO     MOSUNNY   91  72  52 NE3       29.94R HX  98
GRANITE FALLS  SUNNY     86  69  56 CALM      29.95R HX  90
CANBY          SUNNY     88  66  47 NW5       29.95R HX  91
MARSHALL       PTSUNNY   88  72  58 W8        29.94S HX  94
REDWOOD FALLS  MOSUNNY   84  72  67 S7        29.94S
OLIVIA         MOSUNNY   82  70  65 S6        29.95R
PIPESTONE      PTSUNNY   82  72  69 SW7       29.99S
WINDOM         MOSUNNY   84  70  61 SW6       29.98S
WORTHINGTON    PTSUNNY   81  72  74 SW9       30.01R
JACKSON        MOSUNNY   82  68  61 SW6       30.00R
TRACY          SUNNY     84  72  65 SW7       29.97S HX  90
SLAYTON        PTSUNNY   82  71  68 CALM      30.00S
$$
MNZ065>067-074>077-082>085-091>093-120000-
   South Central Minnesota

CITY           SKY/WX    TMP DP  RH WIND       PRES   REMARKS
MANKATO        CLOUDY    81  66  61 S9        29.97R
NEW ULM        SUNNY     82  72  69 W5        29.96R
FAIRMONT       PTSUNNY   82  66  57 S8        29.98R
GLENCOE        MOSUNNY   82  69  66 SW5       29.95S
FARIBAULT      CLOUDY    81  66  61 S6        29.98S
OWATONNA       MOSUNNY   79  66  65 S7        29.99S
WASECA         CLOUDY    79  63  57 S12       30.00R
ALBERT LEA     PTSUNNY   79  66  65 S12       30.00R
$$
MNZ078>079-086>088-094>096-120000-
   Southeast Minnesota

CITY           SKY/WX    TMP DP  RH WIND       PRES   REMARKS
ROCHESTER      PTSUNNY   76  66  71 S12       30.03S
RED WING       CLOUDY    79  68  69 S5        29.97R
STANTON        CLOUDY    78  67  69 S7        29.96S
DODGE CENTER   PTSUNNY   77  68  73 S12       30.02S
WINONA         MOSUNNY   79  64  61 SW8G16    30.01S
AUSTIN         PTSUNNY   75  66  73 S10       30.01S
PRESTON        MOSUNNY   76  66  71 S13G21    30.04S
$$
ABBREVIATIONS USED IN REMARKS
   TC - TEMPERATURES IN CELSIUS
  WCI - WIND CHILL INDEX
   HX - HEAT INDEX
  VSB - VISIBILITY
$$


USA.gov is the U.S. government's official web portal to all federal, state and local government web resources and services.